Location: Hoyos del Collado
(40.3594°N, 5.2003°W)
Time: 14:08:50
(UTC+00:00)

Cosmos 1503 Rocket - Visible Passes

Search period start: 13 July 2024 00:00
Search period end: 23 July 2024 00:00
Orbit: 751 x 787 km, 74.0° (Epoch: 13 July)

Date Brightness Start Highest point End Pass type
(mag) Time Alt. Az. Time Alt. Az. Time Alt. Az.
13 Jul 6.3 03:50:21 10° N 03:54:44 27° ENE 03:59:06 10° ESE visible
14 Jul 6.9 03:14:27 10° NNE 03:17:47 17° ENE 03:21:07 10° E visible
15 Jul 7.4 02:39:56 10° NE 02:40:42 10° NE 02:41:29 10° ENE visible
15 Jul 4.2 04:18:31 10° NNW 04:23:41 78° ENE 04:28:51 10° SSE visible
16 Jul 5.2 03:42:00 10° N 03:46:58 45° ENE 03:51:54 10° SE visible
17 Jul 6.1 03:05:44 10° N 03:10:08 27° ENE 03:14:31 10° ESE visible
18 Jul 6.7 02:29:50 10° NNE 02:33:11 17° ENE 02:36:32 10° E visible
18 Jul 4.0 04:10:37 10° NNW 04:15:42 61° WSW 04:20:48 10° S visible
19 Jul 7.1 01:55:16 10° NE 01:56:06 10° NE 01:56:58 10° ENE visible
19 Jul 4.1 03:33:54 10° NNW 03:39:05 78° ENE 03:44:16 10° SSE visible
20 Jul 5.0 02:57:24 10° N 03:02:21 45° ENE 03:07:19 10° SE visible
21 Jul 5.9 02:21:08 10° N 02:25:32 27° ENE 02:29:55 10° ESE visible
21 Jul 4.6 04:02:58 10° NW 04:07:37 35° W 04:12:17 10° SSW visible
22 Jul 6.5 01:45:12 10° NNE 01:48:35 17° ENE 01:51:57 10° E visible
22 Jul 4.0 03:26:00 10° NNW 03:31:06 61° WSW 03:36:12 10° S visible
